Tracking 18980 objects as of 23-Feb-2018
HD Live streaming from Space Station
objects crossing your sky now

RIGIDSPHERE 2 (LCS 4)

Track RIGIDSPHERE 2 (LCS 4) now!
10-day predictions
RIGIDSPHERE 2 (LCS 4) is classified as:


NORAD ID: 5398
Int'l Code: 1971-067E
Perigee: 741.0 km
Apogee: 832.2 km
Inclination: 87.6 °
Period: 100.4 minutes
Semi major axis: 7157 km
RCS: 0.9311 m2 (medium)
Launch date: August 7, 1971
Source: United States (US)
Launch site: AIR FORCE WESTERN TEST RANGE (AFWTR)
aabbcc
Your satellite tracking list
Your tracking list is empty




NASA's NSSDC Master Catalog

Two Line Element Set (TLE):
1  5398U 71067E   18053.87794408 +.00000151 +00000-0 +46872-4 0  9998
2  5398 087.6185 097.3929 0063717 178.0325 182.1135 14.33667765438487
Source of the keplerian elements: AFSPC